Weather History for KCQW - November, 2013

Change the Weather History Date:

Saturday, November 9, 2013

  Actual Average (KFLO) Record (KFLO)
Temperature  
Mean Temperature 44 °F 57 °F  
Max Temperature 59 °F 69 °F 85 °F (1975)
Min Temperature 28 °F 46 °F 22 °F (1967)
Degree Days  
Heating Degree Days 22 8  
Month to date heating degree days 67  
Since 1 July heating degree days 184  
Cooling Degree Days 0 1  
Month to date cooling degree days 9  
Year to date cooling degree days 2051  
Moisture  
Dew Point 31 °F    
Average Humidity 65    
Maximum Humidity 100    
Minimum Humidity 25    
Precipitation  
Precipitation 0.00 in 0.09 in 2.35 in (1991)
Month to date precipitation 0.79  
Year to date precipitation 38.02  
Sea Level Pressure  
Sea Level Pressure 30.31 in    
Wind  
Wind Speed - (North)    
Max Wind Speed -    
Max Gust Speed -    
Visibility 10 miles    
Events      
T = Trace of Precipitation, MM = Missing Value Source: NWS Daily Summary

Daily Weather History Graph

Daily Weather History Graph

Search for Another Location

Airport or City:

Trip Planner

Search our weather history database for the weather conditions in past years. The results will help you decide how hot, cold, wet, or windy it might be!

Date:

Astronomy

Nov. 09, 2013 Rise Set
Actual Time 6:48 AM EST 5:18 PM EST
Civil Twilight 6:21 AM EST 5:45 PM EST
Nautical Twilight 5:51 AM EST 6:15 PM EST
Astronomical Twilight 5:21 AM EST 6:45 PM EST
Moon 12:26 PM EST (11/9) 11:43 PM EST (11/9)
Length of Visible Light 11h 23m
Length of Day
10h 30m
Waxing Crescent, 44% of the Moon is Illuminated
Nov 9
Waxing Crescent
Nov 10
First Quarter
Nov 17
Full
Nov 25
Last Quarter
Dec 2
New

Hourly Weather History & Observations

Time (EST) Temp. Dew Point Humidity Pressure Visibility Wind Dir Wind Speed Gust Speed Precip Events Conditions
12:15 AM 32.0 °F 32.0 °F 100% 30.32 in 8.0 mi North - - N/A   Clear
12:35 AM 32.0 °F 32.0 °F 100% 30.32 in 9.0 mi North - - N/A   Clear
12:55 AM 35.6 °F 32.0 °F 87% 30.33 in 8.0 mi North - - N/A   Clear
1:15 AM 32.0 °F 32.0 °F 100% 30.33 in 9.0 mi North - - N/A   Clear
1:35 AM 32.0 °F 32.0 °F 100% 30.34 in 8.0 mi North - - N/A   Clear
1:55 AM 32.0 °F 32.0 °F 100% 30.35 in 8.0 mi North - - N/A   Clear
2:15 AM 32.0 °F 32.0 °F 100% 30.34 in 10.0 mi North - - N/A   Clear
2:35 AM 32.0 °F 32.0 °F 100% 30.34 in 10.0 mi North - - N/A   Clear
2:55 AM 32.0 °F 32.0 °F 100% 30.34 in 10.0 mi North - - N/A   Clear
3:15 AM 32.0 °F 32.0 °F 100% 30.33 in 10.0 mi North - - N/A   Clear
3:35 AM 32.0 °F 32.0 °F 100% 30.33 in 10.0 mi North - - N/A   Clear
3:55 AM 32.0 °F 30.2 °F 93% 30.34 in 10.0 mi North - - N/A   Clear
4:15 AM 32.0 °F 30.2 °F 93% 30.34 in 10.0 mi North - - N/A   Clear
4:35 AM 30.2 °F 30.2 °F 100% 30.34 in 10.0 mi North - - N/A   Clear
4:55 AM 30.2 °F 28.4 °F 93% 30.34 in 10.0 mi North - - N/A   Clear
5:15 AM 30.2 °F 28.4 °F 93% 30.35 in 10.0 mi North - - N/A   Clear
5:35 AM 28.4 °F 28.4 °F 100% 30.36 in 10.0 mi North - - N/A   Clear
5:55 AM 28.4 °F 28.4 °F 100% 30.37 in 10.0 mi North - - N/A   Clear
6:15 AM 28.4 °F 28.4 °F 100% 30.36 in 10.0 mi North - - N/A   Clear
6:35 AM 28.4 °F 28.4 °F 100% 30.36 in 9.0 mi North - - N/A   Clear
6:55 AM 28.4 °F 28.4 °F 100% 30.38 in 8.0 mi North - - N/A   Clear
7:15 AM 30.2 °F 28.4 °F 93% 30.38 in 10.0 mi North - - N/A   Clear
7:35 AM 32.0 °F 32.0 °F 100% 30.38 in 9.0 mi North - - N/A   Clear
7:55 AM 32.0 °F 32.0 °F 100% 30.38 in 10.0 mi North - - N/A   Clear
8:15 AM 35.6 °F 32.0 °F 87% 30.39 in 10.0 mi North - - N/A   Clear
8:35 AM 39.2 °F 33.8 °F 81% 30.39 in 10.0 mi North - - N/A   Clear
8:55 AM 41.0 °F 35.6 °F 81% 30.39 in 10.0 mi North - - N/A   Clear
9:15 AM 42.8 °F 33.8 °F 70% 30.39 in 10.0 mi North - - N/A   Clear
9:35 AM 46.4 °F 32.0 °F 57% 30.39 in 10.0 mi North - - N/A   Clear
9:55 AM 48.2 °F 28.4 °F 46% 30.39 in 10.0 mi North - - N/A   Clear
10:15 AM 48.2 °F 28.4 °F 46% 30.38 in 10.0 mi North - - N/A   Clear
10:35 AM 50.0 °F 28.4 °F 43% 30.38 in 10.0 mi North - - N/A   Clear
10:55 AM 53.6 °F 28.4 °F 38% 30.38 in 10.0 mi North - - N/A   Clear
11:15 AM 55.4 °F 26.6 °F 33% 30.37 in 10.0 mi North - - N/A   Clear
11:35 AM 55.4 °F 26.6 °F 33% 30.36 in 10.0 mi North - - N/A   Clear
11:55 AM 55.4 °F 26.6 °F 33% 30.35 in 10.0 mi North - - N/A   Clear
12:15 PM 57.2 °F 24.8 °F 29% 30.34 in 10.0 mi North - - N/A   Clear
12:35 PM 57.2 °F 24.8 °F 29% 30.33 in 10.0 mi North - - N/A   Clear
12:55 PM 57.2 °F 23.0 °F 27% 30.31 in 10.0 mi North - - N/A   Clear
1:15 PM 57.2 °F 24.8 °F 29% 30.30 in 10.0 mi North - - N/A   Clear
1:35 PM 59.0 °F 23.0 °F 25% 30.29 in 10.0 mi North - - N/A   Clear
1:55 PM 59.0 °F 23.0 °F 25% 30.29 in 10.0 mi North - - N/A   Clear
2:15 PM 59.0 °F 23.0 °F 25% 30.28 in 10.0 mi North - - N/A   Clear
2:35 PM 59.0 °F 24.8 °F 27% 30.27 in 10.0 mi North - - N/A   Clear
2:55 PM 59.0 °F 24.8 °F 27% 30.27 in 10.0 mi North - - N/A   Clear
3:15 PM 59.0 °F 24.8 °F 27% 30.26 in 10.0 mi North - - N/A   Clear
3:35 PM 59.0 °F 26.6 °F 29% 30.27 in 10.0 mi North - - N/A   Clear
3:55 PM 59.0 °F 28.4 °F 31% 30.27 in 10.0 mi North - - N/A   Clear
4:15 PM 57.2 °F 32.0 °F 38% 30.27 in 10.0 mi North - - N/A   Clear
4:35 PM 55.4 °F 32.0 °F 41% 30.27 in 10.0 mi North - - N/A   Clear
4:55 PM 55.4 °F 35.6 °F 47% 30.27 in 10.0 mi North - - N/A   Clear
5:15 PM 53.6 °F 32.0 °F 44% 30.28 in 10.0 mi North - - N/A   Clear
5:35 PM 51.8 °F 37.4 °F 58% 30.27 in 10.0 mi North - - N/A   Clear
5:55 PM 53.6 °F 33.8 °F 47% 30.28 in 10.0 mi North - - N/A   Clear
6:15 PM 53.6 °F 35.6 °F 51% 30.28 in 10.0 mi North - - N/A   Clear
6:35 PM 51.8 °F 35.6 °F 54% 30.27 in 10.0 mi North - - N/A   Clear
6:55 PM 51.8 °F 35.6 °F 54% 30.27 in 10.0 mi North - - N/A   Clear
7:15 PM 50.0 °F 33.8 °F 54% 30.26 in 10.0 mi North - - N/A   Clear
7:35 PM 51.8 °F 32.0 °F 47% 30.24 in 9.0 mi North - - N/A   Clear
7:55 PM 50.0 °F 37.4 °F 62% 30.23 in 10.0 mi North - - N/A   Clear
8:15 PM 50.0 °F 35.6 °F 58% 30.24 in 10.0 mi North - - N/A   Clear
8:35 PM 48.2 °F 37.4 °F 66% 30.24 in 10.0 mi North - - N/A   Clear
8:55 PM 48.2 °F 37.4 °F 66% 30.25 in 10.0 mi North - - N/A   Clear
9:35 PM 48.2 °F 37.4 °F 66% 30.25 in 10.0 mi North - - N/A   Clear
9:55 PM 48.2 °F 35.6 °F 62% 30.24 in 10.0 mi North - - N/A   Clear
10:15 PM 48.2 °F 35.6 °F 62% 30.23 in 10.0 mi North - - N/A   Clear
10:35 PM 48.2 °F 37.4 °F 66% 30.23 in 10.0 mi North - - N/A   Clear
10:55 PM 48.2 °F 35.6 °F 62% 30.23 in 10.0 mi North - - N/A   Clear
11:15 PM 48.2 °F 33.8 °F 58% 30.24 in 10.0 mi North - - N/A   Clear
11:35 PM 48.2 °F 35.6 °F 62% 30.23 in 10.0 mi North - - N/A   Clear
11:55 PM 48.2 °F 35.6 °F 62% 30.23 in 10.0 mi North - - N/A   Clear